User: anonymous   Login
Location: Unspecified
(0.0000°N, 0.0000°E)
Time: 22:03:08
(UTC+00:00)
Language:

N. Korean satellite - Orbit

View from above orbital plane
View from above orbital plane
View from above satellite
View from above satellite

Ground track
Ground track

The orbit data is extracted from the following two-line orbital elements,

1 39026U 12072A   15183.48589886  .00002899  00000-0  13274-3 0  9994
2 39026 097.2822 214.5206 0046194 179.3376 180.7929 15.20322432141031
Epoch (UTC): 02 July 2015 11:39:41
Eccentricity: 0.0046194
inclination: 97.2822°
perigee height: 473 km
apogee height: 536 km
right ascension of ascending node: 214.5206°
argument of perigee: 179.3376°
revolutions per day: 15.20322432
mean anomaly at epoch: 180.7929°
orbit number at epoch: 14103

The dashed part of the orbit path shows where the satellite is in the earth's shadow,  

DLR